Location: Churchill Northern Studies Centre
(58.7378°N, 93.8201°W)
Time: 10:45:00
(UTC-06:00)

N. Korean satellite - Pass Details

Date: 12 October 2017
Orbit: 461 x 513 km, 97.2° (Epoch: 16 December)

Event Time Altitude Azimuth Distance (km) Brightness Sun altitude
Rises 06:58:31 0° 28° (NNE) 2,509 10.5 -6.9°
Reaches altitude 10° 07:01:34 10° 57° (ENE) 1,623 10.1 -6.5°
Maximum altitude 07:03:13 13° 86° (E) 1,451 10.6 -6.3°
Drops below altitude 10° 07:04:51 10° 115° (ESE) 1,617 10.6 -6.1°
Sets 07:07:52 0° 144° (SE) 2,488 10.8 -5.7°
